Terminal Aerodrome Forecast
Issued by NWS Huntsville, AL

Home | Current Version | Previous Version | Text Only | Print | Product List | Glossary On
Versions: 1 2 3 4 5 6 7 8 9 10 11 12 13 14 15 16 17 18 19 20 21 22 23 24 25 26 27 28 29 30 31 32 33
000
FTUS44 KHUN 200523
TAFHSV
TAF
KHSV 200523Z 2006/2106 22003KT P6SM SCT250
     FM200800 VRB03KT P6SM SCT015 BKN035 BKN080
      TEMPO 2011/2013 5SM BR
     FM201400 27006KT P6SM SCT040 SCT080
     FM210100 22003KT P6SM FEW060=

USA.gov is the U.S. government's official web portal to all federal, state and local government web resources and services.